Location: Newark
(47.4906°N, 19.0585°E)
Time: 00:59:32
(UTC+00:00)

Envisat - Visible Passes

Search period start: 13 December 2019 00:00
Search period end: 23 December 2019 00:00
Orbit: 764 x 766 km, 98.1° (Epoch: 12 December)

Date Brightness Start Highest point End Pass type
(mag) Time Alt. Az. Time Alt. Az. Time Alt. Az.
13 Dec 5.7 04:30:30 10° NE 04:34:19 21° E 04:38:07 10° SE visible
13 Dec 3.5 15:47:54 10° SE 15:52:34 38° ENE 15:57:15 10° N visible
13 Dec 4.8 17:27:09 10° SSW 17:31:39 31° W 17:36:10 10° NNW visible
14 Dec 3.4 05:31:52 10° NNE 05:36:58 72° ESE 05:42:02 10° S visible
14 Dec 3.4 16:49:39 10° S 16:54:42 65° WSW 16:59:46 10° NNW visible
15 Dec 4.8 04:55:24 10° NNE 05:00:02 34° E 05:04:39 10° SSE visible
15 Dec 3.0 16:12:56 10° SSE 16:17:56 62° ENE 16:22:58 10° N visible
15 Dec 5.6 17:53:49 10° SW 17:57:24 19° W 18:01:00 10° NW visible
16 Dec 5.9 04:19:38 10° NE 04:22:54 17° E 04:26:09 10° SE visible
16 Dec 3.7 15:36:56 10° SE 15:41:22 31° ENE 15:45:49 10° N visible
16 Dec 4.4 17:15:34 10° SSW 17:20:17 39° W 17:25:03 10° NNW visible
17 Dec 3.8 05:20:38 10° NNE 05:25:40 58° E 05:30:40 10° S visible
17 Dec 3.1 16:38:19 10° SSE 16:43:24 81° WSW 16:48:31 10° NNW visible
17 Dec 6.2 18:21:49 10° WSW 18:23:15 11° W 18:24:40 10° WNW visible
18 Dec 5.2 04:44:18 10° NE 04:48:40 28° E 04:53:01 10° SSE visible
18 Dec 3.1 16:01:48 10° SE 16:06:42 50° ENE 16:11:37 10° N visible
18 Dec 5.3 17:41:57 10° SW 17:46:00 24° W 17:50:03 10° NW visible
19 Dec 6.1 04:08:59 10° ENE 04:11:29 14° E 04:13:58 10° ESE visible
19 Dec 3.0 05:46:04 10° NNE 05:51:11 86° WNW 05:56:16 10° SSW visible
19 Dec 3.9 15:26:02 10° ESE 15:30:11 26° ENE 15:34:21 10° N visible
19 Dec 4.0 17:04:04 10° S 17:08:57 48° W 17:13:53 10° NNW visible
20 Dec 4.2 05:09:25 10° NNE 05:14:20 46° E 05:19:13 10° S visible
20 Dec 2.9 16:27:02 10° SSE 16:32:07 83° ENE 16:37:13 10° NNW visible
20 Dec 6.0 18:09:10 10° WSW 18:11:48 14° W 18:14:26 10° NW visible
21 Dec 5.5 04:33:18 10° NE 04:37:17 23° E 04:41:15 10° SE visible
21 Dec 3.4 15:50:45 10° SE 15:55:28 41° ENE 16:00:14 10° N visible
21 Dec 4.9 17:30:14 10° SSW 17:34:37 29° W 17:39:02 10° NW visible
22 Dec 6.3 03:58:59 10° ENE 04:00:01 11° E 04:01:03 10° E visible
22 Dec 3.2 05:34:47 10° NNE 05:39:54 78° ESE 05:44:59 10° S visible
22 Dec 3.5 16:52:37 10° S 16:57:38 60° W 17:02:40 10° NNW visible
